Regional Weather Roundup
Issued by NWS

Home | Current Version | Previous Version | Text Only | Print | Product List | Glossary On
Versions: 1 2 3 4 5 6 7 8 9 10 11 12 13 14 15 16 17 18 19 20 21 22 23 24 25 26 27 28 29 30 31 32 33 34 35 36 37 38 39 40 41 42 43 44 45 46 47 48 49 50
000
ASUS45 KABQ 290610
RWRNM
NEW MEXICO REGIONAL WEATHER ROUNDUP
NATIONAL WEATHER SERVICE ALBUQUERQUE NM
1200 AM MDT THU SEP 29 2016

NOTE: "FAIR" MEANS FEW OR NO CLOUDS BELOW 12,000 FEET AGL WITH NO
       SIGNIFICANT WEATHER OR OBSTRUCTIONS TO VISION.

      THIS PRODUCT IS RELEASED AS TWO VERSIONS.  ONE VERSION NEAR
      THE TOP OF THE HOUR CONTAINING PRELIMINARY DATA FROM ALBUQUERQUE
      AND OTHER STATIONS.  A FINAL VERSION WITH ADDITIONAL DATA IS
      ISSUED ABOUT 10 MINUTES AFTER THE HOUR.

NMZ501-503-504-510>518-290700-
NORTHWEST PLATEAU/NORTHCENTRAL MOUNTAINS

CITY           SKY/WX    TMP DP  RH WIND       PRES   REMARKS
FARMINGTON     MOCLDY    64  48  56 SW12      30.32S
6HR MIN TEMP:  62; 6HR MAX TEMP:  77; 6HR PCP:  0.01;

LOS ALAMOS     FAIR      62  27  27 S8        30.48S
SANTA FE       FAIR      64  29  26 SE12      30.41R
6HR MIN TEMP:  63; 6HR MAX TEMP:  78;

TAOS           FAIR      59  25  27 SE10      30.47S

$$
NMZ402-403-502-505>509-290700-
WESTCENTRAL MOUNTAINS/SOUTHWEST MOUNTAINS

CITY           SKY/WX    TMP DP  RH WIND       PRES   REMARKS
GALLUP         FAIR      54  52  93 E5        30.40R
6HR MIN TEMP:  54; 6HR MAX TEMP:  69; 6HR PCP:  0.05;

SILVER CITY    FAIR      58  48  69 N6        30.31S

$$
NMZ407-409-411-412-290700-
SOUTHERN DESERTS

CITY           SKY/WX    TMP DP  RH WIND       PRES   REMARKS
DEMING         FAIR      67  51  56 NE5       30.24S
6HR MIN TEMP:  67; 6HR MAX TEMP:  78;

LAS CRUCES     FAIR      69  53  57 SE3       30.27R
ALAMOGORDO     FAIR      68  48  49 NW7       30.24S
T OR C         FAIR      69  51  52 CALM      30.28R
6HR MIN TEMP:  69; 6HR MAX TEMP:  79;


$$
NMZ519>523-290700-
CENTRAL VALLEYS/CENTRAL HIGHLANDS

CITY           SKY/WX    TMP DP  RH WIND       PRES   REMARKS
ALBUQUERQUE    MOCLDY    68  32  26 E10       30.33R
6HR MIN TEMP:  68; 6HR MAX TEMP:  79;

DOUBLE EAGLE   FAIR      63  35  36 SE7       30.37R
MORIARTY ARPT  FAIR      51  32  48 NW6       30.43S
6HR MIN TEMP:  51; 6HR MAX TEMP:  75;

CLINES CORNERS FAIR      54  32  43 S7        30.47R
6HR MIN TEMP:  54; 6HR MAX TEMP:  70;

BELEN          FAIR      70  28  20 SE8       30.32R
6HR MIN TEMP:  70; 6HR MAX TEMP:  80;

SOCORRO        FAIR      68  46  45 SW6       30.30R
6HR MIN TEMP:  68; 6HR MAX TEMP:  81;


$$
NMZ524>526-539-540-290700-
SOUTHCENTRAL MOUNTAINS

CITY           SKY/WX    TMP DP  RH WIND       PRES   REMARKS
RUIDOSO        MOCLDY    59  39  47 CALM      30.46S

$$
NMZ527>531-290700-
NORTHEAST HIGHLANDS/NORTHEAST PLAINS

CITY           SKY/WX    TMP DP  RH WIND       PRES   REMARKS
LAS VEGAS      FAIR      52  31  44 N8        30.48R
6HR MIN TEMP:  50; 6HR MAX TEMP:  72;

RATON          FAIR      50  31  48 SW3       30.45R
6HR MIN TEMP:  48; 6HR MAX TEMP:  73;

CLAYTON        FAIR      56  42  59 CALM      30.39R
6HR MIN TEMP:  55; 6HR MAX TEMP:  77;


$$
NMZ532>537-290700-
EASTCENTRAL PLAINS

CITY           SKY/WX    TMP DP  RH WIND       PRES   REMARKS
TUCUMCARI      FAIR      56  35  45 CALM      30.30R
6HR MIN TEMP:  56; 6HR MAX TEMP:  82;

CANNON AFB     NOT AVBL
CLOVIS AIRPORT FAIR      55  43  62 NE7       30.32S

$$
NMZ028-029-538-290700-
SOUTHEAST PLAINS

CITY           SKY/WX    TMP DP  RH WIND       PRES   REMARKS
ROSWELL        FAIR      63  50  62 CALM      30.27R
6HR MIN TEMP:  59; 6HR MAX TEMP:  81;

ARTESIA        FAIR      63  57  82 CALM      30.27R
CARLSBAD       FAIR      64  58  80 CALM      30.24R
6HR MIN TEMP:  63; 6HR MAX TEMP:  79;

HOBBS          FAIR      57  50  77 CALM      30.29R


$$



USA.gov is the U.S. government's official web portal to all federal, state and local government web resources and services.